sat.trackr.live / text

‹ back to catalog

STARLINK-4200

NORAD 52876 · 2022-062AY

PAYLOAD ACTIVE UNKNOWN

§ Identity

Operator
Country
US
Launch date
2022-06-17
Launch site
AFETR
Launch vehicle
Mass (kg)
RCS (m²)

Purposes: comms

External: N2YO · Heavens-Above · Gunter

§ Orbital elements

Epoch: 2026-05-25T01:37:43.680288Z

Period
95.44 min
Inclination
53.2135°
Eccentricity
0.0001289
Mean motion
15.08842126 rev/d
Perigee alt
538.8 km
Apogee alt
540.6 km
Semi-major
6,917.9 km
B*
7.1394e-5
RAAN
31.2456°
Arg perigee
84.3811°
Mean anomaly
275.7328°
Rev number
21,759

§ Raw data

STARLINK-42001 52876U 22062AY  26145.06786667  .00000849  00000+0  71394-4 0  99922 52876  53.2135  31.2456 0001289  84.3811 275.7328 15.08842126217590

JSON: /api/v1/satellites/52876 · /tle

For live sub-satellite position, see the globe view (requires WebGL).

§ Visibility from observer

Set your observer location to see the next 7 days of passes ≥ 10°. The values pass through the URL so the page stays shareable.

No JS? Fill the form by hand. The geolocation button needs JavaScript.